| time (UTC) | temp F | wind direction | speed MPH | gust MPH | rain 1hr in | rain 24hr in | rain mn in | humidity % | barometer mb |
| 20260831231608 | 87 | 273 | 0.0 | 2.0 | 0.00 | 1.12 | 1.12 | 72 | 1014.8 |
| 20260831230059 | 87 | 0 | 0.0 | 2.0 | 0.00 | 1.12 | 1.12 | 73 | 1014.8 |
| 20260831224556 | 86 | 94 | 1.0 | 3.0 | 0.00 | 1.12 | 1.12 | 74 | 1014.8 |
| 20260831223104 | 87 | 223 | 0.0 | 2.0 | 0.00 | 1.12 | 1.12 | 75 | 1015.0 |
| 20260831221604 | 87 | 0 | 0.0 | 2.0 | 0.00 | 1.12 | 1.12 | 75 | 1014.9 |
| 20260831220114 | 86 | 213 | 0.0 | 2.0 | 0.00 | 1.12 | 1.12 | 77 | 1014.8 |
| 20260831214554 | 86 | 0 | 0.0 | 2.0 | 0.00 | 1.12 | 1.12 | 77 | 1015.1 |
| 20260831213101 | 85 | 0 | 0.0 | 0.0 | 0.00 | 1.12 | 1.12 | 77 | 1015.3 |
| 20260831211611 | 84 | 208 | 0.0 | 2.0 | 0.00 | 1.12 | 1.12 | 76 | 1015.5 |
| 20260831210057 | 82 | 348 | 1.0 | 3.0 | 0.00 | 1.12 | 1.12 | 77 | 1015.9 |
| 20260831204604 | 82 | 30 | 3.0 | 10.0 | 0.00 | 1.12 | 1.12 | 76 | 1016.1 |
| 20260831203102 | 85 | 98 | 1.0 | 3.0 | 0.01 | 1.12 | 1.12 | 77 | 1016.4 |
| 20260831201609 | 86 | 145 | 1.0 | 6.0 | 1.01 | 1.12 | 1.12 | 74 | 1016.1 |
| 20260831200108 | 85 | 227 | 1.0 | 6.0 | 1.01 | 1.12 | 1.12 | 77 | 1016.0 |
| 20260831194635 | 83 | 222 | 1.0 | 5.0 | 1.01 | 1.12 | 1.12 | 83 | 1016.5 |
| 20260831193102 | 81 | 58 | 4.0 | 14.0 | 1.00 | 1.11 | 1.11 | 82 | 1016.5 |
| 20260831191559 | 89 | 311 | 1.0 | 4.0 | 0.00 | 0.11 | 0.11 | 70 | 1016.6 |
| 20260831190120 | 89 | 221 | 3.0 | 5.0 | 0.00 | 0.11 | 0.11 | 70 | 1016.5 |
| 20260831184634 | 89 | 265 | 2.0 | 7.0 | 0.00 | 0.11 | 0.11 | 70 | 1016.6 |
| 20260831183108 | 90 | 238 | 2.0 | 5.0 | 0.00 | 0.11 | 0.11 | 71 | 1016.9 |
| 20260831181603 | 89 | 175 | 1.0 | 3.0 | 0.00 | 0.11 | 0.11 | 72 | 1017.1 |
| 20260831180107 | 86 | 0 | 0.0 | 2.0 | 0.11 | 0.11 | 0.11 | 77 | 1017.4 |
| 20260831174612 | 85 | 260 | 1.0 | 3.0 | 0.11 | 0.11 | 0.11 | 83 | 1017.5 |
| 20260831173108 | 84 | 0 | 0.0 | 2.0 | 0.11 | 0.11 | 0.11 | 82 | 1017.6 |
| 20260831171603 | 81 | 240 | 1.0 | 2.0 | 0.11 | 0.11 | 0.11 | 85 | 1017.8 |
| 20260831170059 | 82 | 222 | 1.0 | 5.0 | 0.00 | 0.00 | 0.00 | 76 | 1017.8 |
| 20260831164606 | 85 | 257 | 1.0 | 7.0 | 0.00 | 0.00 | 0.00 | 78 | 1018.0 |
| 20260831163105 | 86 | 40 | 1.0 | 3.0 | 0.00 | 0.00 | 0.00 | 75 | 1017.9 |
| 20260831161606 | 86 | 44 | 1.0 | 6.0 | 0.00 | 0.00 | 0.00 | 73 | 1017.8 |
| 20260831160105 | 88 | 39 | 3.0 | 8.0 | 0.00 | 0.00 | 0.00 | 72 | 1017.8 |
| 20260831154622 | 87 | 56 | 1.0 | 4.0 | 0.00 | 0.00 | 0.00 | 72 | 1017.7 |
| 20260831153104 | 88 | 56 | 1.0 | 6.0 | 0.00 | 0.00 | 0.00 | 72 | 1017.5 |
| 20260831151602 | 88 | 26 | 2.0 | 4.0 | 0.00 | 0.00 | 0.00 | 74 | 1017.7 |
| 20260831150104 | 86 | 32 | 2.0 | 5.0 | 0.00 | 0.00 | 0.00 | 78 | 1017.5 |
| 20260831144633 | 85 | 327 | 1.0 | 5.0 | 0.00 | 0.00 | 0.00 | 80 | 1017.4 |
| 20260831143100 | 85 | 352 | 1.0 | 4.0 | 0.00 | 0.00 | 0.00 | 81 | 1017.5 |
| 20260831141601 | 83 | 352 | 2.0 | 4.0 | 0.00 | 0.00 | 0.00 | 83 | 1017.5 |
| 20260831134605 | 80 | 332 | 1.0 | 2.0 | 0.00 | 0.00 | 0.00 | 91 | 1017.2 |
| 20260831133103 | 78 | 0 | 0.0 | 0.0 | 0.00 | 0.00 | 0.00 | 93 | 1017.0 |
| 20260831131603 | 77 | 0 | 0.0 | 0.0 | 0.00 | 0.00 | 0.00 | 94 | 1016.8 |
| 20260831130116 | 77 | 0 | 0.0 | 0.0 | 0.00 | 0.00 | 0.00 | 94 | 1016.6 |
| 20260831124603 | 76 | 0 | 0.0 | 0.0 | 0.00 | 0.00 | 0.00 | 94 | 1016.4 |
| 20260831123104 | 76 | 0 | 0.0 | 0.0 | 0.00 | 0.00 | 0.00 | 94 | 1016.3 |
| 20260831121605 | 76 | 0 | 0.0 | 0.0 | 0.00 | 0.00 | 0.00 | 93 | 1016.0 |
| 20260831120110 | 76 | 0 | 0.0 | 0.0 | 0.00 | 0.00 | 0.00 | 93 | 1016.0 |
| 20260831114606 | 77 | 0 | 0.0 | 2.0 | 0.00 | 0.00 | 0.00 | 94 | 1015.7 |
| 20260831113106 | 76 | 0 | 0.0 | 2.0 | 0.00 | 0.00 | 0.00 | 94 | 1015.6 |
| 20260831111612 | 76 | 0 | 0.0 | 0.0 | 0.00 | 0.00 | 0.00 | 94 | 1015.7 |
| 20260831110137 | 76 | 0 | 0.0 | 0.0 | 0.00 | 0.00 | 0.00 | 93 | 1015.6 |
| 20260831104603 | 76 | 0 | 0.0 | 0.0 | 0.00 | 0.00 | 0.00 | 93 | 1015.7 |
| 20260831103109 | 76 | 0 | 0.0 | 0.0 | 0.00 | 0.00 | 0.00 | 93 | 1015.8 |
| 20260831101559 | 76 | 0 | 0.0 | 2.0 | 0.00 | 0.00 | 0.00 | 93 | 1015.6 |
| 20260831094604 | 76 | 0 | 0.0 | 2.0 | 0.00 | 0.00 | 0.00 | 93 | 1015.7 |
| 20260831093102 | 76 | 0 | 0.0 | 0.0 | 0.00 | 0.00 | 0.00 | 93 | 1015.7 |
| 20260831091607 | 76 | 0 | 0.0 | 0.0 | 0.00 | 0.00 | 0.00 | 93 | 1015.7 |
| 20260831090059 | 76 | 0 | 0.0 | 2.0 | 0.00 | 0.00 | 0.00 | 92 | 1015.6 |
| 20260831084607 | 77 | 0 | 0.0 | 0.0 | 0.00 | 0.00 | 0.00 | 92 | 1015.7 |
| 20260831083100 | 77 | 0 | 0.0 | 0.0 | 0.00 | 0.00 | 0.00 | 92 | 1015.8 |
| 20260831081635 | 77 | 0 | 0.0 | 0.0 | 0.00 | 0.00 | 0.00 | 91 | 1015.8 |
| 20260831080106 | 78 | 0 | 0.0 | 0.0 | 0.00 | 0.00 | 0.00 | 91 | 1015.9 |
| 20260831074605 | 78 | 0 | 0.0 | 0.0 | 0.00 | 0.00 | 0.00 | 90 | 1015.9 |
| 20260831073138 | 78 | 0 | 0.0 | 0.0 | 0.00 | 0.00 | 0.00 | 89 | 1015.9 |
| 20260831071604 | 78 | 0 | 0.0 | 2.0 | 0.00 | 0.00 | 0.00 | 89 | 1016.0 |
| 20260831070108 | 78 | 0 | 0.0 | 0.0 | 0.00 | 0.00 | 0.00 | 89 | 1016.1 |
| 20260831064609 | 79 | 0 | 0.0 | 2.0 | 0.00 | 0.00 | 0.00 | 87 | 1016.1 |
| 20260831063056 | 80 | 0 | 0.0 | 2.0 | 0.00 | 0.00 | 0.00 | 85 | 1016.3 |
| 20260831061605 | 80 | 0 | 0.0 | 2.0 | 0.00 | 0.00 | 0.00 | 85 | 1016.3 |
| 20260831060116 | 80 | 0 | 0.0 | 2.0 | 0.00 | 0.00 | 0.00 | 84 | 1016.3 |
| 20260831054607 | 80 | 0 | 0.0 | 2.0 | 0.00 | 0.00 | 0.00 | 84 | 1016.1 |
| 20260831053057 | 81 | 207 | 0.0 | 3.0 | 0.00 | 0.00 | 0.00 | 83 | 1016.2 |
| 20260831051601 | 81 | 171 | 0.0 | 2.0 | 0.00 | 0.00 | 0.00 | 83 | 1016.2 |
| 20260831050142 | 81 | 0 | 0.0 | 2.0 | 0.00 | 0.00 | 0.00 | 83 | 1016.1 |
| 20260831044606 | 81 | 194 | 1.0 | 2.0 | 0.00 | 0.00 | 0.00 | 82 | 1016.0 |
| 20260831043105 | 81 | 0 | 0.0 | 3.0 | 0.00 | 0.00 | 0.00 | 82 | 1015.9 |
| 20260831041604 | 82 | 150 | 0.0 | 3.0 | 0.00 | 0.00 | 0.00 | 81 | 1016.0 |
| 20260831040106 | 82 | 0 | 0.0 | 2.0 | 0.00 | 0.00 | 0.00 | 81 | 1015.9 |
| 20260831034607 | 82 | 176 | 0.0 | 2.0 | 0.00 | 0.00 | 0.00 | 80 | 1015.9 |
| 20260831033103 | 82 | 201 | 0.0 | 2.0 | 0.00 | 0.00 | 0.00 | 80 | 1015.7 |
| 20260831031607 | 82 | 181 | 0.0 | 3.0 | 0.00 | 0.00 | 0.00 | 79 | 1015.7 |
| 20260831030107 | 82 | 234 | 1.0 | 3.0 | 0.00 | 0.00 | 0.00 | 79 | 1015.5 |
| 20260831024605 | 83 | 179 | 0.0 | 2.0 | 0.00 | 0.00 | 0.00 | 78 | 1015.4 |
| 20260831023102 | 83 | 0 | 0.0 | 0.0 | 0.00 | 0.00 | 0.00 | 78 | 1015.1 |
| 20260831021607 | 83 | 0 | 0.0 | 2.0 | 0.00 | 0.00 | 0.00 | 77 | 1015.0 |
| 20260831020108 | 84 | 0 | 0.0 | 4.0 | 0.00 | 0.00 | 0.00 | 77 | 1014.8 |
| 20260831014603 | 84 | 168 | 1.0 | 4.0 | 0.00 | 0.00 | 0.00 | 76 | 1014.7 |
| 20260831013059 | 85 | 233 | 1.0 | 4.0 | 0.00 | 0.00 | 0.00 | 75 | 1014.8 |
| 20260831011557 | 85 | 190 | 1.0 | 4.0 | 0.00 | 0.00 | 0.00 | 74 | 1014.8 |
| 20260831010107 | 86 | 0 | 1.0 | 4.0 | 0.00 | 0.00 | 0.00 | 72 | 1014.8 |
| 20260831004614 | 87 | 225 | 1.0 | 5.0 | 0.00 | 0.00 | 0.00 | 70 | 1014.7 |
| 20260831003100 | 87 | 186 | 1.0 | 3.0 | 0.00 | 0.00 | 0.00 | 69 | 1014.7 |
| 20260831001607 | 88 | 252 | 2.0 | 6.0 | 0.00 | 0.00 | 0.00 | 68 | 1014.7 |
| 20260831000106 | 89 | 125 | 3.0 | 7.0 | 0.00 | 0.00 | 0.00 | 65 | 1014.9 |
| 20260830234609 | 90 | 196 | 2.0 | 6.0 | 0.00 | 0.00 | 0.00 | 63 | 1014.6 |
| 20260830233108 | 91 | 155 | 2.0 | 7.0 | 0.00 | 0.00 | 0.00 | 61 | 1014.6 |